Shannon, Ireland

8:44 PM IST on October 17, 2017 (GMT +0100)
Shannon

Weather History for EINN - July, 2014

Change the Weather History Date:

Monday, July 7, 2014

  Actual Average Record
Temperature  
Mean Temperature 59 °F -  
Max Temperature 65 °F 67 °F 77 °F (2013)
Min Temperature 53 °F 54 °F 46 °F (2000)
Degree Days  
Heating Degree Days 6    
Growing Degree Days 9 (Base 50)    
Moisture  
Dew Point 49 °F    
Average Humidity 73    
Maximum Humidity 94    
Minimum Humidity 37    
Precipitation  
Precipitation 0.01 in 0.08 in - ()
Sea Level Pressure  
Sea Level Pressure 29.92 in    
Wind  
Wind Speed 5 mph ()    
Max Wind Speed 12 mph    
Max Gust Speed -    
Visibility 7.9 miles    
Events Rain    
Averages and records for this station are not official NWS values.
T = Trace of Precipitation, MM = Missing Value Source: Averaged Metar Reports

Daily Weather History Graph

Daily Weather History Graph

Search for Another Location

Airport or City:

Trip Planner

Search our weather history database for the weather conditions in past years. The results will help you decide how hot, cold, wet, or windy it might be!

Date:

Astronomy

Jul. 07, 2014 Rise Set
Actual Time 5:20 AM IST 9:59 PM IST
Civil Twilight 4:31 AM IST 10:48 PM IST
Nautical Twilight 3:13 AM IST 12:05 AM IST
Astronomical Twilight 2:12 AM IST 1:08 AM IST
Moon 4:25 PM IST (7/7) 1:35 AM IST (7/7)
Length of Visible Light 18h 16m
Length of Day
16h 38m
Waxing Gibbous, 70% of the Moon is Illuminated
Jul 7
Waxing Gibbous
Jul 12
Full
Jul 19
Last Quarter
Jul 26
New
Aug 4
First Quarter

Hourly Weather History & Observations

Time (IST) Temp. Dew Point Humidity Pressure Visibility Wind Dir Wind Speed Gust Speed Precip Events Conditions
12:00 AM 54 °F 49 °F 77% 29.86 in 12 mi WSW 6.7 mph - -   Scattered Clouds
12:00 AM 55.4 °F 48.2 °F 77% 29.86 in 6.2 mi WSW 6.9 mph - N/A   Scattered Clouds
12:30 AM 53.6 °F 48.2 °F 82% 29.86 in 6.2 mi WSW 8.1 mph - N/A   Mostly Cloudy
1:00 AM 54 °F 49 °F 76% 29.87 in 12 mi WSW 8.9 mph - - Rain Light Rain Showers
1:00 AM 55.4 °F 48.2 °F 77% 29.86 in 6.2 mi WSW 8.1 mph - N/A   Mostly Cloudy
1:30 AM 53.6 °F 48.2 °F 82% 29.86 in 6.2 mi West 5.8 mph - N/A   Scattered Clouds
2:00 AM 54 °F 49 °F 77% 29.87 in 12 mi WSW 6.7 mph - - Rain Light Rain Showers
2:00 AM 53.6 °F 48.2 °F 82% 29.86 in 6.2 mi WSW 5.8 mph - N/A   Scattered Clouds
2:30 AM 53.6 °F 50.0 °F 88% 29.86 in 6.2 mi WSW 6.9 mph - N/A   Mostly Cloudy
3:00 AM 55 °F 50 °F 79% 29.87 in 12 mi SW 4.5 mph - -   Mostly Cloudy
3:00 AM 55.4 °F 50.0 °F 82% 29.86 in 6.2 mi SW 4.6 mph - N/A   Mostly Cloudy
3:30 AM 55.4 °F 50.0 °F 82% 29.86 in 6.2 mi West 6.9 mph - N/A   Mostly Cloudy
4:00 AM 54 °F 49 °F 77% 29.88 in 12 mi SW 4.5 mph - -   Scattered Clouds
4:00 AM 53.6 °F 48.2 °F 82% 29.86 in 6.2 mi SW 3.5 mph - N/A   Scattered Clouds
4:30 AM 53.6 °F 50.0 °F 88% 29.86 in 6.2 mi SW 4.6 mph - N/A   Scattered Clouds
5:00 AM 54 °F 51 °F 84% 29.88 in 12 mi SSW 4.5 mph - -   Mostly Cloudy
5:00 AM 53.6 °F 50.0 °F 88% 29.86 in 6.2 mi SSW 4.6 mph - N/A   Mostly Cloudy
5:30 AM 53.6 °F 50.0 °F 88% 29.86 in 6.2 mi SW 8.1 mph - N/A Rain Light Rain Showers
6:00 AM 54 °F 52 °F 89% 29.89 in 10 mi West 4.5 mph - - Rain Light Rain Showers
6:00 AM 53.6 °F 51.8 °F 94% 29.89 in 6.2 mi West 3.5 mph - N/A   Mostly Cloudy
6:30 AM 53.6 °F 51.8 °F 94% 29.89 in 6.2 mi Calm Calm - N/A   Mostly Cloudy
7:00 AM 53 °F 51 °F 91% 29.91 in 16 mi SW 2.2 mph - - Rain Light Rain Showers
7:00 AM 53.6 °F 51.8 °F 94% 29.89 in 6.2 mi SW 1.2 mph - N/A   Overcast
7:30 AM 53.6 °F 51.8 °F 94% 29.92 in 6.2 mi SSW 4.6 mph - N/A   Mostly Cloudy
8:00 AM 54 °F 51 °F 87% 29.92 in 16 mi SSW 2.2 mph - -   Overcast
8:00 AM 53.6 °F 51.8 °F 94% 29.92 in 6.2 mi SSW 2.3 mph - N/A   Mostly Cloudy
8:30 AM 55.4 °F 51.8 °F 88% 29.92 in 6.2 mi SSE 3.5 mph - N/A   Mostly Cloudy
9:00 AM 55 °F 52 °F 85% 29.93 in 12 mi South 4.5 mph - -   Overcast
9:00 AM 55.4 °F 51.8 °F 88% 29.92 in 6.2 mi South 3.5 mph - N/A   Mostly Cloudy
9:30 AM 55.4 °F 51.8 °F 88% 29.92 in 6.2 mi SSW 4.6 mph - N/A   Mostly Cloudy
10:00 AM 56 °F 52 °F 81% 29.94 in 19 mi South 4.5 mph - -   Overcast
10:00 AM 57.2 °F 51.8 °F 82% 29.92 in 6.2 mi South 4.6 mph - N/A   Mostly Cloudy
10:30 AM 57.2 °F 51.8 °F 82% 29.92 in 6.2 mi SSW 2.3 mph - N/A   Mostly Cloudy
11:00 AM 59 °F 51 °F 66% 29.94 in 12 mi SSE 4.5 mph - -   Partly Cloudy
11:00 AM 59.0 °F 50.0 °F 72% 29.92 in 6.2 mi SSE 3.5 mph - N/A   Mostly Cloudy
11:30 AM 60.8 °F 50.0 °F 68% 29.92 in 6.2 mi WSW 4.6 mph - N/A   Mostly Cloudy
12:00 PM 61 °F 47 °F 49% 29.94 in 25 mi South 4.5 mph - -   Mostly Cloudy
12:00 PM 60.8 °F 46.4 °F 59% 29.92 in 6.2 mi South 3.5 mph - N/A   Mostly Cloudy
12:30 PM 59.0 °F 48.2 °F 67% 29.92 in 6.2 mi West 4.6 mph - N/A   Mostly Cloudy
1:00 PM 59 °F 43 °F 45% 29.94 in 12 mi SSE 4.5 mph - - Rain Light Rain Showers
1:00 PM 59.0 °F 42.8 °F 55% 29.92 in 6.2 mi SSE 4.6 mph - N/A Rain Light Rain Showers
1:30 PM 60.8 °F 44.6 °F 55% 29.92 in 6.2 mi East 5.8 mph - N/A   Partly Cloudy
2:00 PM 63 °F 44 °F 38% 29.94 in 25 mi East 6.7 mph - - Rain Light Rain Showers
2:00 PM 62.6 °F 44.6 °F 52% 29.92 in 6.2 mi East 5.8 mph - N/A   Partly Cloudy
2:30 PM 64.4 °F 44.6 °F 49% 29.92 in 6.2 mi SSE 4.6 mph - N/A   Partly Cloudy
3:00 PM 65 °F 45 °F 37% 29.94 in 25 mi South 4.5 mph - -   Partly Cloudy
3:00 PM 64.4 °F 44.6 °F 49% 29.92 in 6.2 mi South 3.5 mph - N/A   Scattered Clouds
3:30 PM 64.4 °F 46.4 °F 52% 29.92 in 6.2 mi SW 5.8 mph - N/A   Scattered Clouds
4:00 PM 64 °F 47 °F 43% 29.94 in 25 mi WSW 6.7 mph - -   Mostly Cloudy
4:00 PM 64.4 °F 46.4 °F 52% 29.92 in 6.2 mi WSW 6.9 mph - N/A   Scattered Clouds
4:30 PM 66.2 °F 48.2 °F 52% 29.92 in 6.2 mi WSW 8.1 mph - N/A   Scattered Clouds
5:00 PM 60 °F 49 °F 58% 29.95 in 19 mi West 11.2 mph - -   Mostly Cloudy
5:00 PM 59.0 °F 50.0 °F 72% 29.95 in 6.2 mi West 11.5 mph - N/A   Scattered Clouds
5:30 PM 59.0 °F 51.8 °F 77% 29.95 in 5.6 mi West 8.1 mph - N/A Rain Light Rain Showers
6:00 PM 59 °F 52 °F 72% 29.95 in 25 mi NW 4.5 mph - - Rain Light Rain Showers
6:00 PM 59.0 °F 51.8 °F 77% 29.95 in 6.2 mi NW 3.5 mph - N/A   Mostly Cloudy
6:30 PM 60.8 °F 51.8 °F 72% 29.95 in 6.2 mi WSW 8.1 mph - N/A   Mostly Cloudy
7:00 PM 61 °F 52 °F 63% 29.97 in 25 mi West 8.9 mph - -   Partly Cloudy
7:00 PM 60.8 °F 51.8 °F 72% 29.95 in 6.2 mi West 9.2 mph - N/A   Mostly Cloudy
7:30 PM 62.6 °F 50.0 °F 63% 29.95 in 6.2 mi WNW 9.2 mph - N/A   Scattered Clouds
8:00 PM 61 °F 48 °F 53% 29.98 in 25 mi West 11.2 mph - -   Partly Cloudy
8:00 PM 60.8 °F 48.2 °F 63% 29.98 in 6.2 mi West 10.4 mph - N/A   Mostly Cloudy
8:30 PM 62.6 °F 48.2 °F 59% 29.98 in 6.2 mi WNW 6.9 mph - N/A   Mostly Cloudy
9:00 PM 60 °F 48 °F 54% 29.99 in 25 mi WNW 8.9 mph - -   Mostly Cloudy
9:00 PM 59.0 °F 48.2 °F 67% 29.98 in 6.2 mi WNW 9.2 mph - N/A   Scattered Clouds
9:30 PM 57.2 °F 48.2 °F 72% 29.98 in 6.2 mi WNW 5.8 mph - N/A   Partly Cloudy
10:00 PM 55 °F 49 °F 74% 30.01 in 25 mi NW 4.5 mph - -   Scattered Clouds
10:00 PM 55.4 °F 48.2 °F 77% 30.01 in 6.2 mi NW 3.5 mph - N/A   Partly Cloudy
10:30 PM 55.4 °F 50.0 °F 82% 30.01 in 6.2 mi NNW 2.3 mph - N/A   Scattered Clouds
11:00 PM 55 °F 50 °F 79% 30.01 in 12 mi Calm Calm - - Rain Light Rain Showers
11:00 PM 55.4 °F 50.0 °F 82% 30.01 in 6.2 mi Calm Calm - N/A Rain Light Rain Showers
11:30 PM 55.4 °F 50.0 °F 82% 30.01 in 6.2 mi NNW 1.2 mph - N/A   Scattered Clouds